Temp
-2 -2 0 -2 -2 -3 -5 -5 -5 -5 -5 -5 -5 -5 -5 -5 -6 -5 -3 -4 -4 -4 -5 -4 -3 -2 -4 -4 -4 -4 -4 -4 -3 -1 -1 -2 -2 -2 -3 -1 1 -0 -1 -4
-3 -3 -3 -3 -3 -4 -5 -5 -5 -6 -6 -6 -6 -6 -6 -5 -6 -4 -4 -3 -3 -4 -4 -4 -4 -3 -4 -5 -5 -4 -5 -4 -1 -1 -2 -2 -2 -3 -4 -4 -3 -2 -1 -5
-6 -4 -4 -4 -4 -4 -4 -5 -7 -7 -8 -7 -6 -6 -6 -6 -6 -5 -5 -3 -2 -2 -4 -3 -4 -5 -5 -5 -5 -4 -4 -3 -3 -0 -3 -4 -5 -6 -5 -4 -3 -3 -5 -7
-7 -5 -4 -4 -4 -4 -4 -5 -5 -6 -8 -7 -7 -7 -6 -6 -6 -6 -5 -3 -3 -2 -4 -4 -5 -5 -5 -5 -5 -5 -5 -5 -5 -5 -5 -6 -6 -7 -5 -4 -4 -4 -6 -6
-8 -7 -5 -5 -4 -4 -4 -4 -5 -6 -7 -7 -8 -7 -7 -7 -6 -5 -5 -4 -4 -4 -3 -4 -4 -4 -5 -5 -5 -5 -5 -5 -5 -6 -6 -6 -6 -6 -6 -7 -6 -5 -6 -6
-8 -8 -7 -6 -5 -5 -4 -4 -5 -5 -7 -8 -7 -7 -8 -7 -6 -4 -4 -5 -4 -5 -5 -5 -5 -5 -5 -5 -4 -5 -5 -4 -4 -3 -5 -5 -5 -6 -7 -7 -7 -7 -6 -7
-8 -8 -8 -8 -7 -7 -6 -5 -5 -5 -8 -8 -8 -8 -7 -7 -5 -4 -5 -5 -5 -5 -4 -4 -4 -4 -4 -4 -5 -5 -4 -4 -4 -4 -5 -3 -6 -6 -6 -6 -7 -7 -7 -7
-9 -10 -10 -9 -9 -8 -8 -7 -7 -7 -8 -7 -7 -7 -6 -7 -7 -6 -6 -6 -4 -4 -4 -5 -5 -5 -5 -5 -5 -6 -5 -4 -3 -3 -3 -7 -7 -6 -6 -7 -7 -7 -7 -7
-10 -9 -9 -9 -8 -8 -8 -8 -8 -8 -8 -8 -7 -7 -7 -7 -7 -7 -5 -5 -4 -4 -5 -5 -3 -3 -2 -3 -5 -5 -5 -5 -5 -3 -2 -2 -5 -7 -6 -6 -7 -6 -7 -6
-10 -9 -9 -9 -9 -9 -9 -9 -8 -7 -6 -6 -6 -6 -7 -7 -7 -6 -6 -5 -5 -5 -6 -5 -3 -2 -3 -3 -3 -5 -5 -4 -4 -3 -3 -6 -7 -5 -6 -7 -6 -6 -6 -6
-9 -9 -9 -9 -9 -9 -9 -8 -7 -6 -6 -7 -7 -7 -7 -7 -7 -7 -7 -6 -6 -6 -6 -4 -4 -3 -4 -4 -3 -4 -4 -3 -5 -4 -3 -4 -6 -7 -7 -6 -6 -6 -7 -7
-10 -10 -10 -9 -9 -9 -8 -7 -7 -7 -7 -6 -7 -7 -6 -6 -7 -7 -6 -7 -5 -6 -5 -5 -4 -5 -5 -3 -5 -5 -5 -5 -5 -5 -6 -6 -6 -7 -7 -7 -7 -7 -7 -7
-10 -10 -10 -10 -9 -9 -8 -8 -7 -7 -7 -8 -8 -7 -7 -6 -6 -6 -6 -6 -5 -5 -6 -6 -6 -5 -4 -5 -3 -6 -6 -5 -7 -6 -6 -6 -7 -7 -7 -7 -7 -7 -7 -7
-11 -10 -10 -10 -9 -9 -8 -8 -6 -7 -6 -7 -8 -7 -7 -6 -6 -6 -6 -5 -6 -5 -5 -6 -6 -5 -5 -4 -5 -5 -6 -6 -7 -6 -6 -7 -7 -7 -7 -8 -7 -7 -7 -7
-11 -11 -10 -9 -8 -8 -8 -8 -7 -7 -7 -7 -7 -7 -7 -7 -6 -6 -6 -6 -6 -6 -6 -6 -6 -6 -7 -7 -6 -6 -6 -7 -7 -7 -6 -6 -7 -7 -7 -8 -8 -8 -8 -7
-10 -10 -10 -9 -9 -9 -9 -8 -8 -8 -7 -7 -9 -8 -8 -7 -7 -7 -6 -6 -6 -7 -8 -8 -8 -6 -6 -6 -6 -7 -6 -6 -6 -6 -6 -6 -7 -7 -7 -8 -8 -8 -8 -8
-10 -10 -9 -9 -9 -9 -7 -7 -7 -8 -7 -7 -10 -10 -8 -8 -7 -7 -7 -7 -7 -8 -7 -8 -8 -7 -7 -8 -6 -7 -6 -6 -6 -6 -6 -6 -7 -7 -8 -8 -8 -8 -8 -8
-10 -10 -9 -9 -9 -9 -8 -7 -8 -8 -8 -8 -9 -9 -9 -8 -8 -7 -7 -7 -7 -7 -7 -7 -8 -8 -7 -8 -8 -7 -7 -7 -6 -6 -7 -7 -7 -7 -8 -8 -8 -8 -8 -8
-10 -9 -10 -9 -9 -8 -8 -8 -8 -8 -8 -7 -8 -9 -9 -8 -7 -7 -7 -7 -7 -7 -8 -8 -8 -7 -8 -8 -8 -7 -7 -7 -7 -7 -7 -7 -7 -8 -8 -8 -8 -8 -8 -8
-10 -10 -11 -10 -9 -8 -9 -9 -9 -9 -8 -8 -8 -8 -7 -8 -7 -7 -7 -7 -7 -9 -8 -7 -8 -8 -7 -7 -7 -7 -7 -7 -7 -7 -7 -7 -7 -8 -8 -8 -8 -8 -8 -8
-10 -10 -10 -9 -9 -9 -9 -9 -9 -9 -8 -8 -7 -8 -7 -8 -8 -7 -7 -8 -8 -8 -8 -8 -8 -7 -7 -7 -7 -7 -7 -8 -8 -8 -7 -8 -8 -8 -8 -8 -8 -8 -8 -8
-10 -10 -10 -10 -10 -9 -9 -9 -9 -9 -9 -8 -8 -8 -8 -8 -8 -8 -8 -7 -7 -8 -7 -7 -8 -8 -7 -7 -7 -7 -8 -8 -8 -8 -8 -8 -8 -8 -8 -8 -8 -8 -8 -9
-11 -12 -12 -10 -10 -9 -9 -9 -9 -9 -8 -7 -7 -8 -8 -8 -8 -7 -7 -7 -8 -8 -8 -8 -8 -7 -7 -7 -7 -8 -8 -8 -8 -9 -9 -9 -8 -8 -8 -8 -8 -8 -9 -9
-12 -12 -12 -10 -10 -10 -9 -10 -8 -7 -7 -8 -8 -8 -8 -8 -7 -7 -7 -8 -8 -8 -9 -8 -8 -7 -7 -7 -8 -8 -8 -8 -9 -9 -9 -9 -9 -9 -9 -9 -9 -9 -9 -9
-12 -12 -11 -10 -9 -9 -8 -8 -8 -7 -8 -8 -8 -8 -8 -8 -8 -7 -8 -8 -9 -9 -8 -8 -7 -7 -7 -7 -7 -8 -8 -9 -9 -9 -9 -9 -9 -9 -9 -9 -9 -9 -9 -9
-11 -11 -10 -10 -9 -9 -9 -9 -8 -8 -8 -9 -9 -9 -8 -8 -8 -8 -8 -9 -8 -9 -7 -7 -8 -8 -8 -7 -7 -8 -8 -9 -9 -9 -9 -10 -10 -10 -9 -9 -9 -9 -9 -9
-11 -11 -10 -10 -11 -10 -9 -9 -9 -9 -9 -10 -9 -8 -8 -8 -8 -8 -8 -8 -7 -7 -7 -8 -8 -8 -8 -7 -8 -8 -8 -9 -9 -9 -9 -9 -10 -10 -10 -10 -10 -10 -9 -10
Height
2912 2902 2899 2905 2912 2920 2933 2944 2960 2968 2980 2990 2990 2995 3004 3010 3015 3019 3024 3027 3033 3043 3041 3042 3046 3046 3047 3050 3051 3051 3051 3051 3051 3052 3050 3050 3050 3051 3051 3050 3044 3042 3041 3041
2905 2896 2898 2904 2911 2918 2926 2940 2954 2966 2975 2979 2983 2996 3000 3006 3012 3014 3019 3021 3028 3033 3036 3040 3039 3043 3044 3044 3047 3048 3047 3048 3046 3047 3048 3047 3048 3048 3046 3045 3044 3040 3040 3040
2907 2902 2903 2907 2911 2921 2932 2938 2946 2960 2966 2973 2981 2991 2997 3005 3008 3012 3017 3021 3026 3028 3032 3033 3034 3036 3039 3041 3044 3042 3043 3046 3044 3041 3042 3044 3044 3043 3041 3042 3041 3037 3035 3036
2909 2907 2907 2911 2914 2921 2929 2937 2940 2944 2956 2968 2979 2987 2993 2997 3004 3009 3013 3016 3020 3021 3026 3030 3031 3035 3037 3040 3040 3040 3041 3042 3042 3042 3040 3041 3040 3038 3034 3034 3035 3036 3035 3035
2911 2910 2908 2910 2917 2923 2929 2932 2938 2948 2957 2968 2974 2980 2987 2991 3000 3006 3010 3014 3016 3020 3024 3026 3026 3031 3036 3038 3039 3038 3038 3040 3040 3040 3039 3040 3038 3036 3035 3034 3033 3034 3034 3035
2911 2914 2917 2915 2917 2921 2926 2933 2939 2949 2953 2963 2969 2975 2983 2990 2996 3003 3009 3013 3015 3021 3022 3024 3029 3032 3033 3035 3037 3036 3037 3038 3039 3035 3037 3039 3038 3035 3034 3035 3036 3037 3037 3036
2907 2911 2915 2918 2920 2925 2931 2936 2939 2945 2952 2961 2968 2976 2984 2992 2996 3003 3008 3011 3014 3016 3021 3024 3028 3030 3031 3032 3033 3034 3037 3037 3037 3034 3037 3034 3033 3033 3034 3035 3035 3036 3035 3036
2905 2911 2914 2917 2919 2925 2932 2935 2942 2947 2952 2962 2971 2978 2985 2992 2998 3001 3004 3007 3010 3016 3020 3026 3029 3031 3031 3030 3032 3032 3034 3035 3035 3032 3030 3033 3033 3032 3033 3035 3037 3036 3036 3036
2910 2914 2917 2920 2922 2927 2934 2938 2944 2951 2956 2964 2971 2979 2985 2989 2995 2998 3000 3006 3010 3014 3019 3024 3025 3025 3026 3029 3030 3030 3032 3032 3033 3030 3028 3026 3027 3028 3031 3033 3036 3035 3035 3035
2912 2916 2920 2923 2927 2932 2938 2944 2950 2954 2962 2969 2975 2980 2983 2990 2991 2996 2999 3003 3009 3012 3017 3021 3022 3022 3023 3024 3026 3027 3029 3030 3029 3027 3026 3026 3026 3026 3030 3034 3036 3032 3033 3033
2913 2918 2922 2927 2931 2938 2943 2948 2953 2957 2960 2966 2972 2978 2981 2985 2991 2993 2996 3003 3006 3010 3015 3018 3019 3019 3021 3023 3023 3025 3027 3026 3026 3026 3023 3024 3023 3025 3029 3029 3028 3030 3031 3032
2914 2920 2923 2928 2935 2940 2945 2949 2953 2956 2962 2963 2970 2976 2980 2982 2987 2992 2995 2999 3001 3007 3012 3014 3016 3017 3017 3020 3021 3020 3025 3024 3022 3023 3021 3020 3020 3022 3025 3026 3027 3028 3030 3031
2916 2921 2927 2930 2937 2943 2948 2950 2954 2957 2962 2967 2972 2975 2979 2983 2986 2989 2993 2995 2998 3002 3005 3010 3013 3016 3017 3018 3019 3019 3018 3018 3020 3020 3018 3018 3019 3020 3022 3024 3026 3028 3029 3031
2918 2923 2927 2934 2940 2944 2948 2951 2955 2960 2963 2966 2973 2976 2979 2982 2985 2988 2991 2995 2998 3002 3005 3008 3011 3014 3014 3016 3015 3018 3018 3017 3016 3016 3017 3018 3018 3019 3021 3023 3025 3027 3028 3030
2920 2925 2931 2936 2940 2945 2950 2955 2958 2961 2966 2966 2971 2977 2980 2983 2985 2988 2991 2994 2998 3001 3005 3007 3010 3011 3013 3013 3014 3016 3015 3015 3015 3015 3015 3017 3018 3018 3021 3022 3024 3026 3028 3029
2922 2927 2932 2937 2941 2948 2951 2955 2959 2961 2966 2968 2974 2979 2981 2984 2986 2989 2991 2994 2997 3000 3004 3006 3006 3007 3011 3013 3014 3013 3012 3013 3013 3014 3014 3016 3018 3019 3020 3022 3024 3025 3026 3028
2924 2929 2935 2939 2945 2950 2952 2957 2959 2963 2966 2969 2976 2980 2982 2985 2988 2991 2993 2995 2997 3000 3002 3005 3007 3007 3009 3010 3012 3011 3011 3011 3012 3013 3013 3014 3016 3019 3020 3022 3023 3025 3026 3027
2926 2931 2937 2942 2947 2951 2955 2958 2961 2965 2969 2972 2975 2980 2984 2986 2989 2992 2994 2996 2999 3000 3002 3004 3006 3006 3007 3009 3009 3009 3009 3010 3011 3012 3012 3013 3014 3016 3019 3021 3022 3024 3025 3026
2928 2933 2939 2944 2948 2952 2956 2959 2963 2967 2971 2972 2975 2978 2983 2986 2988 2991 2995 2997 2999 3001 3002 3005 3006 3007 3006 3007 3007 3007 3008 3009 3010 3010 3011 3012 3014 3015 3016 3018 3020 3022 3023 3024
2929 2935 2941 2945 2950 2954 2958 2962 2965 2968 2969 2973 2976 2978 2980 2986 2989 2992 2996 2997 2999 3002 3004 3003 3004 3006 3004 3005 3006 3006 3006 3007 3008 3009 3010 3011 3013 3014 3016 3017 3017 3019 3021 3022
2929 2935 2942 2946 2951 2955 2959 2962 2966 2969 2971 2973 2975 2977 2980 2986 2990 2992 2994 2997 2999 3002 3003 3003 3004 3005 3003 3003 3004 3004 3005 3005 3006 3007 3008 3009 3010 3012 3014 3015 3016 3017 3019 3020
2933 2939 2944 2949 2954 2957 2961 2963 2966 2968 2971 2972 2975 2978 2981 2985 2989 2992 2995 2996 2999 3001 3001 3001 3002 3001 3002 3002 3002 3002 3002 3003 3004 3005 3006 3008 3009 3011 3012 3013 3014 3016 3017 3018
2935 2940 2946 2951 2954 2957 2958 2959 2963 2963 2965 2969 2973 2977 2981 2986 2990 2992 2994 2996 2998 2999 2999 3001 3001 3000 3000 3000 3001 3001 3001 3001 3001 3002 3004 3005 3007 3009 3010 3011 3013 3014 3015 3016
2936 2942 2947 2951 2953 2954 2955 2958 2959 2963 2965 2969 2973 2978 2981 2985 2989 2991 2993 2995 2996 2997 2998 2999 2999 2999 2999 2999 2999 2999 2999 2999 2999 3000 3001 3003 3005 3006 3008 3009 3010 3012 3013 3014
2937 2942 2945 2947 2949 2950 2953 2956 2960 2963 2965 2969 2974 2979 2983 2986 2989 2990 2992 2994 2994 2995 2997 2996 2997 2998 2998 2998 2998 2997 2997 2997 2997 2998 2999 3000 3002 3003 3004 3006 3007 3008 3010 3011
2939 2942 2944 2946 2949 2951 2953 2956 2959 2962 2966 2971 2976 2980 2983 2985 2987 2988 2990 2992 2993 2994 2993 2995 2996 2997 2997 2997 2996 2995 2995 2995 2995 2995 2996 2997 2998 2999 3001 3002 3003 3004 3006 3007
2940 2942 2944 2946 2949 2951 2953 2956 2959 2962 2967 2971 2976 2979 2981 2983 2985 2987 2988 2989 2991 2992 2993 2995 2995 2996 2995 2994 2994 2994 2993 2993 2993 2993 2993 2993 2994 2995 2996 2997 2999 3000 3001 3002
Wind_Speed
25 33 29 33 38 32 46 50 56 58 52 51 42 46 20 22 23 30 26 21 20 26 24 23 20 18 14 17 14 8 10 8 7 8 5 7 9 12 15 16 10 12 10 2
16 10 14 28 30 26 53 55 52 48 51 43 45 27 21 20 28 26 22 24 25 27 24 17 23 16 15 16 12 11 10 6 6 11 5 4 2 8 12 15 19 22 9 2
16 15 12 23 31 41 52 56 34 41 48 35 39 29 27 25 21 21 20 25 30 27 26 17 22 17 17 16 12 13 11 8 5 5 1 5 7 10 13 16 14 8 2 3
13 23 28 31 48 57 55 49 44 54 55 42 35 29 27 26 27 17 24 28 25 29 24 18 19 16 13 13 10 10 10 7 7 7 3 2 5 7 7 9 13 5 6 4
17 21 40 42 46 51 52 53 47 49 35 37 39 34 30 31 21 27 24 19 23 24 23 16 23 20 14 9 8 11 8 6 5 11 6 4 7 2 4 7 3 6 6 6
24 25 32 47 53 54 48 44 43 45 34 38 44 37 32 30 28 28 26 22 27 16 16 15 15 14 14 11 9 7 6 6 7 6 11 8 7 1 4 7 9 7 5 8
23 24 26 28 30 28 40 36 32 34 39 42 35 29 26 27 25 26 21 23 20 23 17 13 13 12 15 10 9 9 6 4 5 6 9 5 5 6 7 6 8 9 10 9
21 25 23 25 26 27 23 27 27 30 36 37 23 26 27 23 18 21 24 24 25 22 19 11 10 8 6 7 8 7 6 6 6 6 11 5 7 13 11 7 6 8 9 7
41 33 28 29 28 30 33 32 23 23 33 28 26 28 28 25 23 23 27 25 23 22 17 12 11 9 10 8 7 9 9 6 7 7 7 5 9 14 13 10 7 8 7 8
43 35 34 33 32 27 22 19 20 21 18 18 24 26 26 21 21 18 26 25 22 22 14 14 11 9 8 8 9 9 9 10 11 12 9 3 8 13 13 7 7 9 8 10
36 36 29 28 28 22 20 19 19 28 25 32 30 27 30 23 17 17 24 24 23 23 14 15 10 7 11 7 6 7 8 7 7 6 6 4 11 15 13 7 6 9 11 9
42 37 28 17 19 17 21 20 17 17 18 33 28 23 22 25 22 18 17 17 21 14 12 11 10 7 8 10 5 7 5 7 2 8 7 6 11 19 18 8 10 11 10 9
30 21 19 23 19 17 19 22 20 14 23 27 22 23 20 18 19 18 18 24 17 21 20 13 9 7 8 9 8 7 9 10 7 8 9 10 12 16 19 13 13 12 11 9
19 21 27 23 20 19 20 17 20 18 28 24 21 17 16 15 16 17 16 16 16 15 18 12 6 7 12 10 4 8 8 7 9 11 6 8 13 15 16 14 12 12 11 10
25 27 24 25 23 22 22 20 20 18 15 25 23 17 15 14 14 15 15 14 14 14 14 12 8 8 6 6 8 7 9 12 8 9 7 10 11 13 13 12 13 13 12 10
23 23 26 27 24 25 27 23 19 20 8 25 16 18 16 15 15 14 14 15 16 15 7 8 9 11 8 6 7 13 11 9 8 6 6 10 9 13 13 13 13 12 11 10
21 25 27 26 25 25 26 23 24 22 12 21 15 11 17 18 16 15 14 13 13 10 8 5 4 7 10 7 6 12 10 8 7 6 6 9 9 11 13 13 13 12 11 10
22 25 26 27 25 21 16 14 19 19 17 13 9 11 17 19 13 13 12 11 9 8 6 6 4 5 7 4 9 10 9 9 7 6 7 8 10 13 13 12 11 10 10 9
24 27 27 25 22 20 16 20 18 19 13 9 9 17 15 20 16 12 10 9 8 7 5 3 5 4 3 5 6 9 10 9 9 8 9 9 10 13 13 12 10 10 9 8
29 31 30 24 23 20 20 19 19 15 11 8 12 15 16 21 16 12 9 7 6 3 5 5 4 4 7 6 7 6 8 11 11 11 11 11 11 12 12 12 12 11 10 9
31 31 26 24 21 21 17 9 11 9 7 9 10 13 17 21 13 14 7 6 5 3 4 3 2 2 5 6 10 11 10 10 10 13 14 14 13 12 11 10 10 10 10 9
30 30 23 25 20 9 6 11 10 7 6 12 12 14 19 21 16 9 5 5 6 3 5 4 2 6 5 5 6 7 9 10 11 14 15 14 12 11 10 10 11 11 10 9
29 25 21 18 9 8 8 10 10 9 16 20 19 19 22 19 11 6 5 5 5 4 4 2 4 4 4 3 4 5 6 8 11 14 15 17 16 13 11 10 11 12 12 11
23 15 15 9 7 9 9 11 16 12 16 21 21 22 17 18 10 6 5 5 5 4 4 3 5 3 3 4 5 5 6 8 9 12 16 16 16 15 14 13 14 15 14 13
14 9 7 12 9 15 12 15 17 14 19 25 25 22 16 16 6 5 4 6 4 4 4 7 6 3 2 2 4 5 6 7 8 12 15 18 18 17 16 16 16 17 17 16
13 7 10 13 12 14 14 17 19 19 24 26 22 12 8 8 5 7 5 5 3 5 8 8 5 4 4 7 8 6 7 7 7 9 13 15 17 17 17 18 18 19 19 17
6 10 12 15 12 14 16 18 18 22 27 25 16 9 8 8 6 6 7 7 7 7 8 6 6 7 9 10 5 4 6 7 8 9 9 11 14 16 18 18 18 18 18 19
Wind_Direction
276 278 265 214 219 212 199 193 187 196 203 193 212 222 192 183 185 194 196 188 206 217 201 193 197 205 212 193 194 193 190 203 212 218 243 238 240 253 247 236 261 251 275 239
323 260 223 213 222 205 182 179 186 192 196 200 210 197 179 182 184 193 198 199 202 191 194 184 199 186 189 194 187 197 186 209 226 179 180 183 301 276 283 282 269 269 274 131
308 215 181 196 194 182 189 177 157 177 190 190 198 182 180 179 180 182 193 201 210 202 192 196 191 184 192 190 185 203 183 197 249 324 176 297 306 300 280 253 261 297 177 230
263 233 204 203 194 189 188 193 189 187 189 189 179 179 176 168 173 188 191 202 196 191 181 184 183 171 180 184 199 188 175 197 191 162 128 37 323 343 320 215 222 271 191 203
219 233 205 201 194 196 195 200 188 186 197 189 177 175 176 172 183 192 187 193 179 181 194 193 181 177 173 180 186 174 188 197 196 218 241 197 353 337 67 53 256 225 167 148
204 204 209 199 196 201 204 211 202 193 190 182 182 178 180 177 189 195 196 180 174 160 163 147 165 168 181 174 171 179 188 191 204 243 207 214 242 201 124 126 119 141 181 167
202 200 208 214 217 213 214 211 223 205 179 183 178 170 172 178 185 196 178 177 168 181 172 166 174 189 186 187 185 172 199 212 233 185 169 225 191 164 150 154 148 168 163 152
181 161 183 186 197 204 199 173 169 182 174 170 163 172 173 177 181 169 168 172 186 175 169 150 154 170 190 212 204 216 205 220 242 231 222 143 188 195 168 142 186 183 178 171
149 141 150 146 144 144 138 133 140 152 150 171 165 168 174 167 162 171 190 185 184 181 170 180 192 185 201 183 200 214 216 222 226 243 247 216 140 179 189 182 208 202 199 182
155 140 143 133 137 144 149 142 153 157 149 155 167 174 172 173 179 181 188 188 185 187 180 190 200 197 195 183 200 196 212 226 243 256 251 124 180 193 185 187 193 192 195 179
174 150 142 133 136 152 167 164 170 176 170 161 165 174 182 167 173 182 193 187 195 190 188 194 199 214 199 192 189 200 212 220 219 237 246 195 205 188 185 219 209 190 184 172
171 160 144 156 148 146 159 156 159 170 172 179 174 182 187 181 182 191 186 193 198 189 182 189 193 190 198 199 210 213 222 214 228 205 224 219 206 201 201 229 188 175 165 160
154 161 164 164 160 159 159 156 155 164 166 154 167 176 185 192 197 196 190 194 206 194 184 174 180 192 186 200 216 200 235 232 231 216 245 237 214 202 198 192 183 175 169 170
162 161 163 172 171 157 164 155 152 162 164 154 156 170 176 177 183 189 194 195 198 193 196 195 189 192 176 204 217 201 213 222 232 226 247 218 196 196 197 189 188 186 183 181
159 163 174 173 160 160 153 161 160 168 163 161 154 156 161 165 169 173 178 176 179 189 193 198 186 197 173 194 198 223 222 249 238 252 240 222 204 195 199 197 192 191 189 190
164 171 168 164 160 169 155 160 160 173 189 149 141 150 151 153 158 158 164 169 176 173 163 183 200 208 160 191 215 224 238 235 243 235 227 212 219 210 201 200 199 196 194 196
164 165 166 164 164 171 161 168 166 171 169 156 125 140 153 146 140 141 144 152 164 157 176 160 182 197 184 212 226 252 232 234 238 237 232 208 209 214 210 200 198 200 204 203
166 167 166 167 170 164 168 170 167 158 162 159 138 152 160 155 152 150 149 150 155 164 161 163 147 215 196 218 236 232 226 226 238 237 231 215 203 193 200 205 208 209 207 204
166 164 164 169 166 167 158 157 160 165 160 163 165 162 172 171 166 159 167 176 182 183 177 184 172 214 216 209 222 227 224 232 239 238 226 218 206 201 193 199 209 210 210 207
169 167 165 170 166 160 148 148 160 165 168 162 154 179 168 173 170 165 153 161 164 126 190 195 205 229 237 224 219 226 231 238 239 238 225 221 219 219 217 212 205 203 204 203
169 176 166 162 159 153 153 160 173 176 175 185 183 185 179 172 169 166 155 152 158 147 237 176 226 230 251 241 242 243 242 242 231 220 216 214 211 213 216 219 217 215 212 212
171 172 161 154 149 141 163 174 167 157 183 180 181 165 175 173 166 159 161 164 164 167 188 193 208 239 242 259 253 246 243 241 234 231 228 221 214 215 221 224 224 218 216 218
164 157 156 162 159 171 177 167 169 184 182 186 179 172 167 166 162 161 164 173 186 178 194 198 201 225 249 248 241 246 246 251 249 231 223 223 227 230 233 234 229 221 224 227
157 140 144 167 182 184 171 176 188 182 180 176 172 168 167 169 158 155 170 182 176 178 198 205 193 207 232 252 266 267 256 258 249 228 225 227 230 234 237 236 233 228 232 238
129 130 162 170 175 181 192 187 181 181 178 177 170 173 171 169 159 173 174 179 187 191 183 201 189 175 166 303 303 294 272 255 254 235 229 232 237 241 242 240 238 234 238 247
143 150 154 164 162 173 178 179 179 178 172 170 165 164 166 169 175 178 181 176 178 195 187 183 206 228 272 316 310 299 296 272 252 241 235 235 237 241 243 242 239 237 242 253
137 150 162 165 166 177 177 178 177 172 166 167 163 165 173 159 184 183 177 180 180 167 180 215 244 275 298 302 279 312 322 287 264 251 247 245 244 243 243 241 240 240 248 258